,,Stat6,,Stat2,,Stat8,,Stat9,,Stat10,,Wind1,,Wind1,
time,status,PA1M_AVG,status,PR1M_SUM,status,RH1M_AVG,status,SR1M_AVG,status,TA1M_AVG,status,W1dAve1m,status,W1sAve1m,
2004-08-13, 00:00:00,VALID,921.049,VALID,0,VALID,97.0196,VALID,-0.0339617,VALID,20.7162,VALID,332,VALID,0.457961,
2004-08-13, 00:01:00,VALID,921.03,VALID,0,VALID,96.942,VALID,-0.0339617,VALID,20.6567,VALID,354,VALID,0.513765,
2004-08-13, 00:02:00,VALID,921.03,VALID,0,VALID,96.9777,VALID,-0.0339617,VALID,20.6478,VALID,352,VALID,0.267721,
2004-08-13, 00:03:00,VALID,921.026,VALID,0,VALID,97.101,VALID,-0.0679233,VALID,20.6279,VALID,352,VALID,0.172247,
2004-08-13, 00:04:00,VALID,921.008,VALID,0,VALID,97.1277,VALID,-0.0339617,VALID,20.6419,VALID,352,VALID,0,
2004-08-13, 00:05:00,VALID,920.995,VALID,0,VALID,97.1442,VALID,-0.0509425,VALID,20.6223,VALID,352,VALID,0,
2004-08-13, 00:06:00,VALID,920.974,VALID,0,VALID,97.1862,VALID,-0.0339617,VALID,20.6252,VALID,352,VALID,0.00111607,
2004-08-13, 00:07:00,VALID,920.946,VALID,0,VALID,97.2587,VALID,0,VALID,20.6309,VALID,352,VALID,0.00130208,
2004-08-13, 00:08:00,VALID,920.921,VALID,0,VALID,97.2879,VALID,0,VALID,20.6374,VALID,352,VALID,0,
2004-08-13, 00:09:00,VALID,920.904,VALID,0,VALID,97.2676,VALID,-0.0169808,VALID,20.6538,VALID,352,VALID,0,
2004-08-13, 00:10:00,VALID,920.881,VALID,0,VALID,97.1786,VALID,-0.0509425,VALID,20.6508,VALID,352,VALID,0.259146,
2004-08-13, 00:11:00,VALID,920.869,VALID,0,VALID,97.0908,VALID,-0.0339617,VALID,20.6511,VALID,352,VALID,0.231707,
2004-08-13, 00:12:00,VALID,920.855,VALID,0,VALID,97.2421,VALID,-0.0169808,VALID,20.6575,VALID,352,VALID,0.0128997,
2004-08-13, 00:13:00,VALID,920.842,VALID,0,VALID,97.2536,VALID,0,VALID,20.6605,VALID,352,VALID,0.110119,
2004-08-13, 00:14:00,VALID,920.815,VALID,0,VALID,97.143,VALID,-0.0169808,VALID,20.6702,VALID,352,VALID,0.287891,
2004-08-13, 00:15:00,VALID,920.801,VALID,0,VALID,97.1137,VALID,-0.0169808,VALID,20.6376,VALID,2,VALID,0.374455,
2004-08-13, 00:16:00,VALID,920.791,VALID,0,VALID,97.2549,VALID,0,VALID,20.6349,VALID,14,VALID,0.369792,
2004-08-13, 00:17:00,VALID,920.773,VALID,0,VALID,97.2345,VALID,-0.0339617,VALID,20.6215,VALID,41,VALID,0.456143,
2004-08-13, 00:18:00,VALID,920.771,VALID,0,VALID,97.2587,VALID,-0.0509425,VALID,20.6185,VALID,41,VALID,0.320668,
2004-08-13, 00:19:00,VALID,920.761,VALID,0,VALID,97.1926,VALID,-0.0679233,VALID,20.6225,VALID,41,VALID,0.291349,
2004-08-13, 00:20:00,VALID,920.753,VALID,0,VALID,97.2116,VALID,-0.0339617,VALID,20.5927,VALID,41,VALID,0.0332031,
2004-08-13, 00:21:00,VALID,920.736,VALID,0,VALID,97.3032,VALID,-0.0339617,VALID,20.5924,VALID,41,VALID,0.124619,
2004-08-13, 00:22:00,VALID,920.726,VALID,0,VALID,97.2523,VALID,-0.0509425,VALID,20.5962,VALID,41,VALID,0.0829613,
2004-08-13, 00:23:00,VALID,920.71,VALID,0,VALID,97.335,VALID,-0.0339617,VALID,20.6029,VALID,13,VALID,0.374112,
2004-08-13, 00:24:00,VALID,920.698,VALID,0,VALID,97.2485,VALID,-0.0169808,VALID,20.5991,VALID,10,VALID,0.38891,
2004-08-13, 00:25:00,VALID,920.684,VALID,0,VALID,97.0908,VALID,-0.0509425,VALID,20.5736,VALID,10,VALID,0.302951,
2004-08-13, 00:26:00,VALID,920.685,VALID,0,VALID,97.101,VALID,-0.0339617,VALID,20.5311,VALID,10,VALID,0.106534,
2004-08-13, 00:27:00,VALID,920.668,VALID,0,VALID,97.2269,VALID,0,VALID,20.5249,VALID,10,VALID,0.095348,
2004-08-13, 00:28:00,VALID,920.66,VALID,0,VALID,97.2688,VALID,-0.0679233,VALID,20.5189,VALID,10,VALID,0.0690696,
2004-08-13, 00:29:00,VALID,920.646,VALID,0,VALID,97.3312,VALID,-0.0339617,VALID,20.5087,VALID,10,VALID,0.101042,
2004-08-13, 00:30:00,VALID,920.653,VALID,0,VALID,97.368,VALID,-0.0509425,VALID,20.5221,VALID,10,VALID,0.0908717,
2004-08-13, 00:31:00,VALID,920.66,VALID,0,VALID,97.3134,VALID,-0.0509425,VALID,20.5063,VALID,308,VALID,0.47017,
2004-08-13, 00:32:00,VALID,920.656,VALID,0,VALID,97.3591,VALID,0,VALID,20.4605,VALID,258,VALID,0.400152,
2004-08-13, 00:33:00,VALID,920.649,VALID,0,VALID,97.5461,VALID,-0.0679233,VALID,20.4377,VALID,258,VALID,0,
2004-08-13, 00:34:00,VALID,920.647,VALID,0,VALID,97.6847,VALID,-0.0509425,VALID,20.4511,VALID,258,VALID,0.028343,
2004-08-13, 00:35:00,VALID,920.635,VALID,0,VALID,97.8487,VALID,-0.0169808,VALID,20.4667,VALID,271,VALID,0.0876524,
2004-08-13, 00:36:00,VALID,920.631,VALID,0,VALID,97.8576,VALID,0,VALID,20.4923,VALID,276,VALID,0,
2004-08-13, 00:37:00,VALID,920.627,VALID,0,VALID,97.822,VALID,0,VALID,20.5022,VALID,279,VALID,0.228091,
2004-08-13, 00:38:00,VALID,920.619,VALID,0,VALID,97.7978,VALID,0,VALID,20.5276,VALID,284,VALID,0.349609,
2004-08-13, 00:39:00,VALID,920.614,VALID,0,VALID,97.7508,VALID,-0.0339617,VALID,20.5547,VALID,284,VALID,0.20957,
2004-08-13, 00:40:00,VALID,920.608,VALID,0,VALID,97.6338,VALID,-0.0679233,VALID,20.5547,VALID,284,VALID,0.0398065,
2004-08-13, 00:41:00,VALID,920.609,VALID,0,VALID,97.56,VALID,-0.0169808,VALID,20.5455,VALID,284,VALID,0,
2004-08-13, 00:42:00,VALID,920.61,VALID,0,VALID,97.5728,VALID,-0.0169808,VALID,20.5251,VALID,266,VALID,0.20585,
2004-08-13, 00:43:00,VALID,920.603,VALID,0,VALID,97.5333,VALID,0,VALID,20.5187,VALID,259,VALID,0.225291,
2004-08-13, 00:44:00,VALID,920.595,VALID,0,VALID,97.6096,VALID,0,VALID,20.5092,VALID,254,VALID,0.146949,
2004-08-13, 00:45:00,VALID,920.589,VALID,0,VALID,97.6567,VALID,-0.0169808,VALID,20.4898,VALID,236,VALID,0.527257,
2004-08-13, 00:46:00,VALID,920.564,VALID,0,VALID,97.6758,VALID,-0.0169808,VALID,20.471,VALID,201,VALID,0.542259,
2004-08-13, 00:47:00,VALID,920.534,VALID,0,VALID,97.8055,VALID,-0.0339617,VALID,20.4508,VALID,193,VALID,0.462891,
2004-08-13, 00:48:00,VALID,920.482,VALID,0,VALID,97.719,VALID,0,VALID,20.4382,VALID,217,VALID,0.769176,
2004-08-13, 00:49:00,VALID,920.459,VALID,0,VALID,97.7177,VALID,-0.0169808,VALID,20.3997,VALID,237,VALID,0.873935,
2004-08-13, 00:50:00,VALID,920.432,VALID,0,VALID,97.8207,VALID,-0.0339617,VALID,20.3676,VALID,238,VALID,0.64707,
2004-08-13, 00:51:00,VALID,920.4,VALID,0,VALID,98.0013,VALID,0,VALID,20.3286,VALID,244,VALID,0.346236,
2004-08-13, 00:52:00,VALID,920.352,VALID,0,VALID,98.0878,VALID,-0.0509425,VALID,20.316,VALID,239,VALID,0.140799,
2004-08-13, 00:53:00,VALID,920.329,VALID,0,VALID,98.159,VALID,-0.0339617,VALID,20.3224,VALID,239,VALID,0.125781,
2004-08-13, 00:54:00,VALID,920.29,VALID,0,VALID,98.2632,VALID,-0.0169808,VALID,20.3219,VALID,301,VALID,0.531836,
2004-08-13, 00:55:00,VALID,920.266,VALID,0,VALID,98.2582,VALID,-0.0339617,VALID,20.3286,VALID,8,VALID,0.514863,
2004-08-13, 00:56:00,VALID,920.241,VALID,0,VALID,98.262,VALID,-0.0169808,VALID,20.3321,VALID,24,VALID,0.464571,
2004-08-13, 00:57:00,VALID,920.214,VALID,0,VALID,98.2696,VALID,0,VALID,20.3284,VALID,24,VALID,0.326705,
2004-08-13, 00:58:00,VALID,920.19,VALID,0,VALID,98.2009,VALID,-0.0169808,VALID,20.3281,VALID,24,VALID,0.0441497,
2004-08-13, 00:59:00,VALID,920.155,VALID,0,VALID,97.9453,VALID,-0.0339617,VALID,20.3222,VALID,34,VALID,0.131747,
2004-08-13, 01:00:00,VALID,920.123,VALID,0,VALID,97.5054,VALID,-0.0339617,VALID,20.2775,VALID,90,VALID,0.467507,
2004-08-13, 01:01:00,VALID,920.101,VALID,0,VALID,97.3642,VALID,-0.0339617,VALID,20.2355,VALID,16,VALID,0.775724,
2004-08-13, 01:02:00,VALID,920.08,VALID,0,VALID,97.3922,VALID,-0.0679233,VALID,20.2188,VALID,16,VALID,0.683789,
2004-08-13, 01:03:00,VALID,920.063,VALID,0,VALID,97.4392,VALID,-0.0339617,VALID,20.2124,VALID,16,VALID,0.745046,
2004-08-13, 01:04:00,VALID,920.048,VALID,0,VALID,97.4825,VALID,-0.0339617,VALID,20.2059,VALID,20,VALID,0.743459,
2004-08-13, 01:05:00,VALID,920.047,VALID,0,VALID,97.3858,VALID,-0.0169808,VALID,20.19,VALID,22,VALID,0.709121,
2004-08-13, 01:06:00,VALID,920.022,VALID,0,VALID,97.3337,VALID,0,VALID,20.1771,VALID,20,VALID,0.796693,
2004-08-13, 01:07:00,VALID,919.983,VALID,0,VALID,97.2688,VALID,-0.0169808,VALID,20.1674,VALID,17,VALID,0.832775,
2004-08-13, 01:08:00,VALID,919.967,VALID,0,VALID,97.2498,VALID,-0.0509425,VALID,20.1446,VALID,17,VALID,0.602865,
2004-08-13, 01:09:00,VALID,919.947,VALID,0,VALID,97.2549,VALID,-0.0169808,VALID,20.1257,VALID,19,VALID,0.705664,
2004-08-13, 01:10:00,VALID,919.927,VALID,0,VALID,97.3451,VALID,-0.0169808,VALID,20.1096,VALID,19,VALID,0.367001,
2004-08-13, 01:11:00,VALID,919.913,VALID,0,VALID,97.3553,VALID,-0.0169808,VALID,20.1155,VALID,19,VALID,0.128815,
2004-08-13, 01:12:00,VALID,919.899,VALID,0,VALID,97.2663,VALID,0,VALID,20.1123,VALID,19,VALID,0.234566,
2004-08-13, 01:13:00,VALID,919.888,VALID,0,VALID,97.2383,VALID,-0.0679233,VALID,20.1029,VALID,339,VALID,0.133765,
2004-08-13, 01:14:00,VALID,919.903,VALID,0,VALID,97.0984,VALID,-0.0169808,VALID,20.0835,VALID,197,VALID,0.14169,
2004-08-13, 01:15:00,VALID,919.9,VALID,0,VALID,97.101,VALID,-0.0339617,VALID,20.0668,VALID,200,VALID,0.0414931,
2004-08-13, 01:16:00,VALID,919.909,VALID,0,VALID,97.19,VALID,0,VALID,20.0735,VALID,200,VALID,0.145579,
2004-08-13, 01:17:00,VALID,919.907,VALID,0,VALID,97.2345,VALID,-0.0339617,VALID,20.081,VALID,200,VALID,0.344551,
2004-08-13, 01:18:00,VALID,919.89,VALID,0,VALID,97.3261,VALID,-0.0169808,VALID,20.077,VALID,200,VALID,0.174665,
2004-08-13, 01:19:00,VALID,919.872,VALID,0,VALID,97.3668,VALID,0,VALID,20.077,VALID,191,VALID,0.199855,
2004-08-13, 01:20:00,VALID,919.847,VALID,0,VALID,97.335,VALID,-0.0169808,VALID,20.0768,VALID,191,VALID,0.335379,
2004-08-13, 01:21:00,VALID,919.815,VALID,0,VALID,97.3299,VALID,0,VALID,20.048,VALID,190,VALID,0.465892,
2004-08-13, 01:22:00,VALID,919.774,VALID,0,VALID,97.3502,VALID,-0.0169808,VALID,20.038,VALID,190,VALID,0.26726,
2004-08-13, 01:23:00,VALID,919.741,VALID,0,VALID,97.382,VALID,-0.0169808,VALID,20.0189,VALID,190,VALID,0.198661,
2004-08-13, 01:24:00,VALID,919.706,VALID,0,VALID,97.4303,VALID,0.0169808,VALID,20.002,VALID,190,VALID,0.0834517,
2004-08-13, 01:25:00,VALID,919.678,VALID,0,VALID,97.4024,VALID,0.0169808,VALID,19.9821,VALID,190,VALID,0.255087,
2004-08-13, 01:26:00,VALID,919.686,VALID,0,VALID,97.4202,VALID,0,VALID,19.9724,VALID,190,VALID,0.412972,
2004-08-13, 01:27:00,VALID,919.713,VALID,0,VALID,97.3757,VALID,0,VALID,19.9302,VALID,195,VALID,0.56359,
2004-08-13, 01:28:00,VALID,919.719,VALID,0,VALID,97.3986,VALID,0.0169808,VALID,19.8987,VALID,229,VALID,0.702398,
2004-08-13, 01:29:00,VALID,919.726,VALID,0,VALID,97.5829,VALID,0.0169808,VALID,19.847,VALID,236,VALID,0.720279,
2004-08-13, 01:30:00,VALID,919.714,VALID,0,VALID,97.8144,VALID,0.0169808,VALID,19.8142,VALID,222,VALID,0.865473,
2004-08-13, 01:31:00,VALID,919.692,VALID,0,VALID,98.0229,VALID,0.0169808,VALID,19.7954,VALID,233,VALID,1.11547,
2004-08-13, 01:32:00,VALID,919.662,VALID,0,VALID,98.1234,VALID,0,VALID,19.7663,VALID,257,VALID,1.39955,
2004-08-13, 01:33:00,VALID,919.624,VALID,0,VALID,98.2785,VALID,0,VALID,19.7042,VALID,251,VALID,1.26348,
2004-08-13, 01:34:00,VALID,919.597,VALID,0,VALID,98.4883,VALID,0.0339617,VALID,19.6888,VALID,256,VALID,0.852431,
2004-08-13, 01:35:00,VALID,919.569,VALID,0,VALID,98.5608,VALID,0.0169808,VALID,19.6764,VALID,237,VALID,0.825893,
2004-08-13, 01:36:00,VALID,919.563,VALID,0,VALID,98.6778,VALID,0.0339617,VALID,19.6603,VALID,197,VALID,0.441761,
2004-08-13, 01:37:00,VALID,919.557,VALID,0,VALID,98.7655,VALID,0.0509425,VALID,19.6434,VALID,160,VALID,0.337847,
2004-08-13, 01:38:00,VALID,919.549,VALID,0,VALID,98.8685,VALID,-0.0169808,VALID,19.6468,VALID,139,VALID,0.224023,
2004-08-13, 01:39:00,VALID,919.532,VALID,0,VALID,98.9626,VALID,-0.0849042,VALID,19.6645,VALID,97,VALID,0.179878,
2004-08-13, 01:40:00,VALID,919.521,VALID,0,VALID,98.9537,VALID,-0.101885,VALID,19.6647,VALID,91,VALID,0.207741,
2004-08-13, 01:41:00,VALID,919.503,VALID,0,VALID,98.9079,VALID,-0.101885,VALID,19.6739,VALID,74,VALID,0.30599,
2004-08-13, 01:42:00,VALID,919.465,VALID,0,VALID,98.8762,VALID,-0.0849042,VALID,19.6737,VALID,50,VALID,0.549352,
2004-08-13, 01:43:00,VALID,919.452,VALID,0,VALID,98.8266,VALID,-0.101885,VALID,19.6903,VALID,42,VALID,0.510719,
2004-08-13, 01:44:00,VALID,919.428,VALID,0,VALID,98.6943,VALID,-0.101885,VALID,19.6935,VALID,40,VALID,0.412972,
2004-08-13, 01:45:00,VALID,919.404,VALID,0,VALID,98.5481,VALID,-0.101885,VALID,19.7037,VALID,40,VALID,0.25218,
2004-08-13, 01:46:00,VALID,919.39,VALID,0,VALID,98.4629,VALID,-0.0679233,VALID,19.6906,VALID,40,VALID,0.0632102,
2004-08-13, 01:47:00,VALID,919.368,VALID,0,VALID,98.4705,VALID,-0.0849042,VALID,19.6873,VALID,40,VALID,0.0412427,
2004-08-13, 01:48:00,VALID,919.343,VALID,0,VALID,98.4514,VALID,-0.0849042,VALID,19.6739,VALID,40,VALID,0.226736,
2004-08-13, 01:49:00,VALID,919.328,VALID,0,VALID,98.4222,VALID,-0.101885,VALID,19.6744,VALID,40,VALID,0.0459449,
2004-08-13, 01:50:00,VALID,919.314,VALID,0,VALID,98.3866,VALID,-0.0679233,VALID,19.6575,VALID,40,VALID,0,
2004-08-13, 01:51:00,VALID,919.292,VALID,0,VALID,98.4082,VALID,-0.101885,VALID,19.6615,VALID,40,VALID,0.133832,
2004-08-13, 01:52:00,VALID,919.257,VALID,0,VALID,98.3764,VALID,-0.101885,VALID,19.6749,VALID,40,VALID,0.414063,
2004-08-13, 01:53:00,VALID,919.242,VALID,0,VALID,98.2658,VALID,-0.101885,VALID,19.6677,VALID,34,VALID,0.571039,
2004-08-13, 01:54:00,VALID,919.224,VALID,0,VALID,98.0852,VALID,0,VALID,19.6404,VALID,27,VALID,0.546289,
2004-08-13, 01:55:00,VALID,919.202,VALID,0,VALID,98.0801,VALID,0,VALID,19.6277,VALID,12,VALID,0.554893,
2004-08-13, 01:56:00,VALID,919.193,VALID,0,VALID,98.1259,VALID,0,VALID,19.6088,VALID,8,VALID,0.433416,
2004-08-13, 01:57:00,VALID,919.177,VALID,0,VALID,98.2543,VALID,0,VALID,19.5862,VALID,8,VALID,0.0940897,
2004-08-13, 01:58:00,VALID,919.147,VALID,0,VALID,98.3027,VALID,0,VALID,19.5892,VALID,8,VALID,0.0141715,
2004-08-13, 01:59:00,VALID,919.11,VALID,0,VALID,98.3344,VALID,0.0169808,VALID,19.5761,VALID,8,VALID,0.208394,
2004-08-13, 02:00:00,VALID,919.084,VALID,0,VALID,98.2925,VALID,0.0169808,VALID,19.5666,VALID,8,VALID,0.28125,
2004-08-13, 02:01:00,VALID,919.047,VALID,0,VALID,98.1513,VALID,0,VALID,19.5438,VALID,8,VALID,0.543555,
2004-08-13, 02:02:00,VALID,919.01,VALID,0,VALID,98.1068,VALID,0.0339617,VALID,19.5279,VALID,8,VALID,0.468555,
2004-08-13, 02:03:00,VALID,918.99,VALID,0,VALID,97.9949,VALID,0.0509425,VALID,19.4958,VALID,8,VALID,0.36701,
2004-08-13, 02:04:00,VALID,918.957,VALID,0,VALID,98.075,VALID,0,VALID,19.473,VALID,8,VALID,0.221413,
2004-08-13, 02:05:00,VALID,918.946,VALID,0,VALID,98.1704,VALID,0.0169808,VALID,19.4467,VALID,8,VALID,0.28924,
2004-08-13, 02:06:00,VALID,918.925,VALID,0,VALID,98.2938,VALID,0,VALID,19.4569,VALID,355,VALID,0.53452,
2004-08-13, 02:07:00,VALID,918.901,VALID,0,VALID,98.468,VALID,0.0509425,VALID,19.4534,VALID,346,VALID,0.504464,
2004-08-13, 02:08:00,VALID,918.874,VALID,0,VALID,98.557,VALID,0.0169808,VALID,19.437,VALID,344,VALID,0.548328,
2004-08-13, 02:09:00,VALID,918.841,VALID,0,VALID,98.6638,VALID,-0.0849042,VALID,19.4419,VALID,355,VALID,0.409128,
2004-08-13, 02:10:00,VALID,918.815,VALID,0,VALID,98.6447,VALID,-0.101885,VALID,19.4134,VALID,355,VALID,0.607244,
2004-08-13, 02:11:00,VALID,918.793,VALID,0,VALID,98.7477,VALID,-0.0849042,VALID,19.4007,VALID,355,VALID,0.701087,
2004-08-13, 02:12:00,VALID,918.763,VALID,0,VALID,98.7159,VALID,-0.0849042,VALID,19.3716,VALID,9,VALID,0.83457,
2004-08-13, 02:13:00,VALID,918.752,VALID,0,VALID,98.8151,VALID,-0.0849042,VALID,19.3615,VALID,9,VALID,0.779297,
2004-08-13, 02:14:00,VALID,918.731,VALID,0,VALID,98.9156,VALID,-0.101885,VALID,19.3394,VALID,9,VALID,0.691134,
2004-08-13, 02:15:00,VALID,918.721,VALID,0,VALID,99.044,VALID,-0.101885,VALID,19.3297,VALID,8,VALID,0.561357,
2004-08-13, 02:16:00,VALID,918.698,VALID,0,VALID,99.1445,VALID,-0.118866,VALID,19.3264,VALID,359,VALID,0.605755,
2004-08-13, 02:17:00,VALID,918.685,VALID,0,VALID,99.2716,VALID,-0.101885,VALID,19.3297,VALID,350,VALID,0.523633,
2004-08-13, 02:18:00,VALID,918.674,VALID,0,VALID,99.4229,VALID,-0.101885,VALID,19.3463,VALID,350,VALID,0.409489,
2004-08-13, 02:19:00,VALID,918.667,VALID,0,VALID,99.5412,VALID,-0.0849042,VALID,19.3386,VALID,350,VALID,0.0824033,
2004-08-13, 02:20:00,VALID,918.689,VALID,0,VALID,99.6226,VALID,-0.0169808,VALID,19.3575,VALID,350,VALID,0.000200321,
2004-08-13, 02:21:00,VALID,918.673,VALID,0,VALID,99.6315,VALID,0,VALID,19.3538,VALID,350,VALID,0.000744048,
2004-08-13, 02:22:00,VALID,918.667,VALID,0,VALID,99.498,VALID,0,VALID,19.3444,VALID,350,VALID,0,
2004-08-13, 02:23:00,VALID,918.651,VALID,0,VALID,99.3098,VALID,0,VALID,19.3123,VALID,350,VALID,0.00199855,
2004-08-13, 02:24:00,VALID,918.62,VALID,0,VALID,99.3352,VALID,-0.0169808,VALID,19.2835,VALID,351,VALID,0.421317,
2004-08-13, 02:25:00,VALID,918.602,VALID,0,VALID,99.4458,VALID,-0.0339617,VALID,19.2676,VALID,15,VALID,0.546317,
2004-08-13, 02:26:00,VALID,918.582,VALID,0,VALID,99.7091,VALID,0,VALID,19.2636,VALID,22,VALID,0.559593,
2004-08-13, 02:27:00,VALID,918.586,VALID,0,VALID,99.7701,VALID,0,VALID,19.2733,VALID,34,VALID,0.509001,
2004-08-13, 02:28:00,VALID,918.593,VALID,0,VALID,99.826,VALID,-0.0339617,VALID,19.2768,VALID,35,VALID,0.333984,
2004-08-13, 02:29:00,VALID,918.6,VALID,0,VALID,99.8795,VALID,-0.0339617,VALID,19.2773,VALID,35,VALID,0.314732,
2004-08-13, 02:30:00,VALID,918.601,VALID,0,VALID,99.7421,VALID,0,VALID,19.2607,VALID,35,VALID,0.331076,
2004-08-13, 02:31:00,VALID,918.596,VALID,0,VALID,99.62,VALID,-0.0169808,VALID,19.2254,VALID,35,VALID,0.225991,
2004-08-13, 02:32:00,VALID,918.6,VALID,0,VALID,99.1483,VALID,0,VALID,19.1059,VALID,35,VALID,0,
2004-08-13, 02:33:00,VALID,918.603,VALID,0,VALID,98.9703,VALID,-0.0169808,VALID,19.0056,VALID,35,VALID,0,
2004-08-13, 02:34:00,VALID,918.586,VALID,0,VALID,98.8698,VALID,0,VALID,18.948,VALID,35,VALID,0,
2004-08-13, 02:35:00,VALID,918.577,VALID,0,VALID,98.9232,VALID,-0.0339617,VALID,18.9321,VALID,35,VALID,0,
2004-08-13, 02:36:00,VALID,918.564,VALID,0,VALID,99.0313,VALID,0,VALID,18.9291,VALID,35,VALID,0,
2004-08-13, 02:37:00,VALID,918.556,VALID,0,VALID,99.2945,VALID,-0.0169808,VALID,18.9346,VALID,45,VALID,0.492746,
2004-08-13, 02:38:00,VALID,918.542,VALID,0,VALID,99.5654,VALID,-0.0169808,VALID,18.9448,VALID,79,VALID,0.726376,
2004-08-13, 02:39:00,VALID,918.521,VALID,0,VALID,99.8438,VALID,-0.0339617,VALID,18.9867,VALID,79,VALID,0.603993,
2004-08-13, 02:40:00,VALID,918.522,VALID,0,VALID,99.9779,VALID,-0.0169808,VALID,19.0225,VALID,74,VALID,0.709872,
2004-08-13, 02:41:00,VALID,918.516,VALID,0,VALID,100,VALID,-0.0169808,VALID,19.0416,VALID,41,VALID,0.619284,
2004-08-13, 02:42:00,VALID,918.528,VALID,0,VALID,99.9634,VALID,-0.0169808,VALID,19.025,VALID,39,VALID,0.508492,
2004-08-13, 02:43:00,VALID,918.534,VALID,0,VALID,99.9906,VALID,-0.0339617,VALID,19.0319,VALID,39,VALID,0.161337,
2004-08-13, 02:44:00,VALID,918.534,VALID,0,VALID,100,VALID,-0.0169808,VALID,19.0478,VALID,39,VALID,0,
2004-08-13, 02:45:00,VALID,918.533,VALID,0,VALID,100,VALID,-0.0169808,VALID,19.0846,VALID,39,VALID,0,
2004-08-13, 02:46:00,VALID,918.538,VALID,0,VALID,100,VALID,-0.0169808,VALID,19.0933,VALID,39,VALID,0,
2004-08-13, 02:47:00,VALID,918.526,VALID,0,VALID,100,VALID,0,VALID,19.1263,VALID,41,VALID,0.213299,
2004-08-13, 02:48:00,VALID,918.515,VALID,0,VALID,99.9794,VALID,-0.0339617,VALID,19.1,VALID,106,VALID,0.540551,
2004-08-13, 02:49:00,VALID,918.504,VALID,0,VALID,99.9735,VALID,0,VALID,19.0868,VALID,144,VALID,0.900977,
2004-08-13, 02:50:00,VALID,918.491,VALID,0,VALID,99.9954,VALID,0,VALID,19.0771,VALID,154,VALID,0.79851,
2004-08-13, 02:51:00,VALID,918.496,VALID,0,VALID,100,VALID,0,VALID,19.0866,VALID,156,VALID,0.761624,
2004-08-13, 02:52:00,VALID,918.472,VALID,0,VALID,100,VALID,0,VALID,19.1159,VALID,154,VALID,0.344131,
2004-08-13, 02:53:00,VALID,918.459,VALID,0,VALID,100,VALID,-0.0169808,VALID,19.1221,VALID,154,VALID,0.00685976,
2004-08-13, 02:54:00,VALID,918.462,VALID,0,VALID,100,VALID,-0.0169808,VALID,19.1387,VALID,154,VALID,0,
2004-08-13, 02:55:00,VALID,918.448,VALID,0,VALID,100,VALID,0,VALID,19.1479,VALID,154,VALID,0,
2004-08-13, 02:56:00,VALID,918.455,VALID,0,VALID,100,VALID,0,VALID,19.1837,VALID,154,VALID,0,
2004-08-13, 02:57:00,VALID,918.465,VALID,0,VALID,100,VALID,0,VALID,19.2028,VALID,154,VALID,0,
2004-08-13, 02:58:00,VALID,918.469,VALID,0,VALID,100,VALID,0.0169808,VALID,19.2065,VALID,154,VALID,0.0116279,
2004-08-13, 02:59:00,VALID,918.475,VALID,0,VALID,100,VALID,-0.0169808,VALID,19.1839,VALID,159,VALID,0.377725,
2004-08-13, 03:00:00,VALID,918.481,VALID,0,VALID,100,VALID,-0.0169808,VALID,19.1583,VALID,238,VALID,0.673611,
2004-08-13, 03:01:00,VALID,918.458,VALID,0,VALID,100,VALID,0,VALID,19.132,VALID,243,VALID,0.497461,
2004-08-13, 03:02:00,VALID,918.441,VALID,0,VALID,100,VALID,0,VALID,19.1161,VALID,243,VALID,0.286932,
2004-08-13, 03:03:00,VALID,918.434,VALID,0,VALID,100,VALID,-0.0169808,VALID,19.1094,VALID,243,VALID,0.410334,
2004-08-13, 03:04:00,VALID,918.41,VALID,0,VALID,100,VALID,-0.0169808,VALID,19.0834,VALID,243,VALID,0.479911,
2004-08-13, 03:05:00,VALID,918.403,VALID,0,VALID,100,VALID,-0.0339617,VALID,19.0771,VALID,243,VALID,0.624637,
2004-08-13, 03:06:00,VALID,918.414,VALID,0,VALID,100,VALID,0,VALID,19.0806,VALID,234,VALID,0.700838,
2004-08-13, 03:07:00,VALID,918.417,VALID,0,VALID,100,VALID,0,VALID,19.0776,VALID,192,VALID,0.491629,
2004-08-13, 03:08:00,VALID,918.413,VALID,0,VALID,100,VALID,-0.0169808,VALID,19.0744,VALID,212,VALID,0.522593,
2004-08-13, 03:09:00,VALID,918.41,VALID,0,VALID,100,VALID,-0.0849042,VALID,19.0811,VALID,245,VALID,0.543155,
2004-08-13, 03:10:00,VALID,918.422,VALID,0,VALID,100,VALID,-0.101885,VALID,19.0979,VALID,260,VALID,0.131324,
2004-08-13, 03:11:00,VALID,918.425,VALID,0,VALID,100,VALID,-0.101885,VALID,19.1166,VALID,277,VALID,0.601376,
2004-08-13, 03:12:00,VALID,918.445,VALID,0,VALID,100,VALID,-0.101885,VALID,19.1397,VALID,247,VALID,0.741461,
2004-08-13, 03:13:00,VALID,918.449,VALID,0,VALID,100,VALID,-0.101885,VALID,19.1332,VALID,238,VALID,0.754954,
2004-08-13, 03:14:00,VALID,918.452,VALID,0,VALID,100,VALID,-0.101885,VALID,19.133,VALID,238,VALID,0.609189,
2004-08-13, 03:15:00,VALID,918.431,VALID,0,VALID,100,VALID,-0.0679233,VALID,19.1491,VALID,238,VALID,0.577934,
2004-08-13, 03:16:00,VALID,918.413,VALID,0,VALID,100,VALID,-0.0679233,VALID,19.1489,VALID,191,VALID,0.386083,
2004-08-13, 03:17:00,VALID,918.414,VALID,0,VALID,100,VALID,-0.101885,VALID,19.159,VALID,191,VALID,0.21657,
2004-08-13, 03:18:00,VALID,918.418,VALID,0,VALID,100,VALID,-0.0679233,VALID,19.1717,VALID,191,VALID,0.125363,
2004-08-13, 03:19:00,VALID,918.415,VALID,0,VALID,100,VALID,-0.0679233,VALID,19.1747,VALID,191,VALID,0.00642361,
2004-08-13, 03:20:00,VALID,918.439,VALID,0,VALID,100,VALID,-0.0679233,VALID,19.1814,VALID,191,VALID,0.0141715,
2004-08-13, 03:21:00,VALID,918.439,VALID,0,VALID,100,VALID,-0.0339617,VALID,19.1844,VALID,191,VALID,0,
2004-08-13, 03:22:00,VALID,918.429,VALID,0,VALID,100,VALID,-0.0849042,VALID,19.2072,VALID,191,VALID,0,
2004-08-13, 03:23:00,VALID,918.438,VALID,0,VALID,100,VALID,-0.0679233,VALID,19.2261,VALID,191,VALID,0.0191592,
2004-08-13, 03:24:00,VALID,918.457,VALID,0,VALID,100,VALID,0,VALID,19.2256,VALID,191,VALID,0.228161,
2004-08-13, 03:25:00,VALID,918.47,VALID,0,VALID,100,VALID,0.0169808,VALID,19.2187,VALID,191,VALID,0.372332,
2004-08-13, 03:26:00,VALID,918.48,VALID,0,VALID,100,VALID,0.0339617,VALID,19.206,VALID,191,VALID,0.257994,
2004-08-13, 03:27:00,VALID,918.475,VALID,0,VALID,100,VALID,0,VALID,19.2194,VALID,191,VALID,0.0196221,
2004-08-13, 03:28:00,VALID,918.47,VALID,0,VALID,100,VALID,0.0169808,VALID,19.2192,VALID,191,VALID,0.115734,
2004-08-13, 03:29:00,VALID,918.458,VALID,0,VALID,100,VALID,0,VALID,19.242,VALID,191,VALID,0.0370164,
2004-08-13, 03:30:00,VALID,918.451,VALID,0,VALID,100,VALID,0.0339617,VALID,19.2443,VALID,191,VALID,0,
2004-08-13, 03:31:00,VALID,918.457,VALID,0,VALID,100,VALID,0.0169808,VALID,19.2775,VALID,191,VALID,0.262463,
2004-08-13, 03:32:00,VALID,918.441,VALID,0,VALID,100,VALID,0.0169808,VALID,19.3004,VALID,191,VALID,0.375572,
2004-08-13, 03:33:00,VALID,918.443,VALID,0,VALID,100,VALID,0,VALID,19.2962,VALID,191,VALID,0.34668,
2004-08-13, 03:34:00,VALID,918.439,VALID,0,VALID,100,VALID,0,VALID,19.2862,VALID,191,VALID,0.388719,
2004-08-13, 03:35:00,VALID,918.436,VALID,0,VALID,100,VALID,0.0339617,VALID,19.2604,VALID,190,VALID,0.489583,